Content
SEND FEEDBACK

Daily
Averages
Monthly
Summary
United States of America

HILLSBORO, NEW MEXICO


Home > North America > United States > New Mexico
Elevation: 5413 feet     Latitude: 32 54N     Longitude: 107 34W

WEATHER
 
SELECT A DAY
Number of Records: 189,368;   Date Range: 1/1/95 - 7/20/14
 
SHARE

PRINT THIS DATA

[ ← Previous Day ]
WEATHER ALMANAC - JANUARY 31, 2013
[ Next Day → ]
[ °C ]   °F
Weather ElementAverageHighLow
Temperature41.4 °F53.1 °F (2:53 pm)28 °F (6:53 am)
Dewpoint17.2 °F19 °F (10:53 am)14 °F (1:53 am)
Humidity39.8 %63 % (6:53 am)25 % (2:53 pm)
Barometer30.19 in30.26 in (7:53 am)30.15 in (2:53 pm)
Wind Speed4.4 mph10.4 mph (3:53 am)
Weather ElementAverage
Visibility9.8 mi
Wind DirectionSSE (155 °)

Weather ElementTotal
Precipitation---
Heating Degree Days24.5 (Base 65)
Averaged from 24 records on January 31, 2013
WEATHER CONDITIONS BREAKOUT
WIND DIRECTION BREAKOUT
WEATHER BY HOUR - JANUARY 31, 2013
[ °C ]   °F
Local TimeTemperatureDewpointHumidityBarometerVisibilityWind DirectionWind SpeedGust SpeedPrecipitationEventsConditions
1:53 AM30.9 °F14.0 °F50 %30.18 in10.0 miWSW (240°)4.6 mphClear
2:53 AM32.0 °F15.1 °F50 %30.18 in10.0 miWSW (250°)5.8 mphClear
3:53 AM34.0 °F16.0 °F48 %30.16 in10.0 miWest (270°)10.4 mphClear
4:53 AM33.1 °F17.1 °F52 %30.18 in10.0 miWest (270°)6.9 mphClear
5:53 AM30.9 °F16.0 °F54 %30.22 in10.0 miNNW (330°)5.8 mphClear
6:53 AM28.0 °F17.1 °F63 %30.23 in10.0 miNW (320°)5.8 mphClear
7:53 AM30.0 °F18.0 °F61 %30.26 in10.0 miCalmClear
8:53 AM39.9 °F18.0 °F41 %30.23 in10.0 miCalmClear
9:53 AM43.0 °F18.0 °F37 %30.25 in10.0 miEast (100°)4.6 mphClear
10:53 AM48.0 °F19.0 °F32 %30.21 in10.0 miNNE (30°)8.1 mphClear
11:53 AM48.9 °F19.0 °F31 %30.19 in10.0 miVariable4.6 mphClear
12:53 PM51.1 °F19.0 °F28 %30.19 in10.0 miCalmClear
1:53 PM52.0 °F19.0 °F27 %30.16 in10.0 miSE (130°)5.8 mphClear
2:53 PM53.1 °F18.0 °F25 %30.15 in10.0 miEast (90°)6.9 mphClear
3:53 PM52.0 °F17.1 °F25 %30.15 in10.0 miCalmClear
4:21 PM51.8 °F17.6 °F26 %30.21 in5.0 miSSW (210°)3.5 mphHaze
4:53 PM52.0 °F17.1 °F25 %30.15 in10.0 miCalmClear
5:53 PM48.9 °F17.1 °F28 %30.16 in10.0 miCalmClear
6:53 PM45.0 °F17.1 °F33 %30.19 in10.0 miCalmClear
7:53 PM44.1 °F17.1 °F34 %30.20 in10.0 miWest (270°)4.6 mphClear
8:53 PM37.9 °F16.0 °F41 %30.20 in10.0 miWNW (300°)6.9 mphClear
9:53 PM39.0 °F18.0 °F43 %30.20 in10.0 miNW (310°)6.9 mphClear
10:53 PM35.1 °F17.1 °F48 %30.19 in10.0 miWNW (290°)6.9 mphClear
11:53 PM32.0 °F16.0 °F52 %30.19 in10.0 miNW (310°)6.9 mphClear
Hourly data recorded from KTCS, located miles away from Hillsboro, New Mexico







STORIES FROM OUR PARTNERS